Vertical_Velocity
-1 0 3 3 1 -0 -2 2 6 8 5 0 -2 -4 -3 -3 -2 -0 3 5 6 5 4 3 3 3 2 1 0 0 0 -0 -1 -1 -1 -1 -1 -1 -1 0 1 1 0 1 1 2 3 2 1 0 0 0 0 0 -0 -1 -1 -2 -2 -1 -1 -1 -1 -2 -2 -2 -2 -2 -2 -1 -1 -1 -1 -1 -0 -0 -0 -1 -1 -1 -1 -2 -2 -2 -2 -1
-2 -2 -0 2 3 2 -1 -0 3 7 8 4 0 -2 -3 -5 -5 -4 -0 2 3 4 4 3 4 4 3 2 1 1 1 0 -0 -1 -1 -0 -0 -0 0 1 1 1 1 2 2 3 2 1 0 0 0 0 0 0 -0 -1 -1 -2 -2 -1 -1 -1 -1 -1 -1 -1 -1 -1 -1 -1 -1 -1 -1 -1 -0 -0 -0 -1 -1 -1 -1 -2 -2 -2 -1 -1
1 -1 -3 -0 2 3 1 1 2 5 8 6 3 -0 -2 -5 -6 -6 -4 -1 0 1 1 3 4 4 4 3 2 2 2 0 -1 -1 -0 0 0 0 1 1 2 2 2 2 3 2 1 0 0 0 0 0 0 0 -0 -1 -1 -2 -2 -1 -1 -1 -1 -1 -1 -1 -1 -1 -1 -1 -1 -1 -1 -1 -0 -0 -0 -1 -1 -1 -1 -1 -2 -2 -2 -1
4 3 -2 -2 -1 -0 0 1 3 5 7 6 4 2 -0 -2 -5 -6 -4 -2 -1 -1 -1 1 4 5 4 4 3 3 2 1 -0 -1 -0 0 0 1 1 2 2 2 3 3 2 1 0 0 0 1 1 1 1 0 -0 -1 -1 -2 -1 -1 -1 -1 -1 -1 -1 -1 -1 -1 -1 -1 -1 -1 -1 -1 -1 -0 -0 -1 -1 -1 -1 -1 -1 -1 -1 -1
6 6 2 -0 -1 -1 -1 0 1 3 5 5 4 3 2 1 -1 -2 -2 -1 -1 -1 -1 1 3 5 5 5 4 4 3 1 -0 -1 -1 -0 0 1 1 2 2 2 3 3 2 1 0 0 1 1 1 1 1 0 -0 -1 -2 -2 -1 -1 -1 -1 -1 -1 -1 -1 -1 -1 -1 -1 -1 -1 -1 -1 -1 -1 -1 -1 -1 -1 -1 -1 -1 -1 -1 -1
6 7 5 2 -0 -0 2 2 1 1 2 1 2 3 4 4 3 1 0 -0 -0 0 1 2 3 4 5 6 5 4 3 1 0 -1 -1 -0 -0 0 1 1 2 2 3 3 2 1 0 1 1 1 1 1 0 -0 -1 -2 -2 -2 -2 -2 -2 -1 -1 -1 -1 -1 -1 -1 -1 -1 -1 -1 -1 -1 -1 -1 -1 -1 -1 -1 -1 -1 -1 -1 -1 -1
5 6 4 1 -1 -1 2 4 3 2 1 -1 -1 0 3 5 5 4 2 2 1 2 4 3 3 3 6 6 6 5 4 2 1 -0 -0 0 1 1 1 1 1 2 3 3 2 1 0 1 1 1 1 1 1 -0 -1 -2 -2 -2 -2 -2 -2 -2 -1 -1 -1 -1 -1 -1 -1 -1 -1 -1 -1 -1 -0 -0 -0 -0 -1 -1 -1 -1 -1 -0 -0 -1
6 5 3 0 -2 -3 -2 1 2 3 2 -0 -0 1 3 6 7 6 5 4 3 3 6 3 1 1 5 6 7 6 5 3 2 1 0 1 2 2 1 1 2 4 5 3 2 1 0 1 1 1 1 1 1 0 -1 -2 -2 -2 -3 -3 -2 -2 -2 -2 -2 -2 -1 -1 -1 -1 -1 -1 -1 -1 -0 -0 -0 -0 -0 -0 -1 -1 -1 -1 -1 -1
5 6 4 1 -1 -2 -2 -2 -1 -0 -0 1 3 5 7 9 9 8 7 5 3 2 4 2 0 -0 2 5 6 7 6 4 3 2 2 2 3 2 0 2 4 5 5 3 2 1 0 1 1 1 2 1 1 -0 -1 -2 -2 -3 -3 -3 -2 -2 -1 -1 -1 -2 -2 -2 -1 -1 -1 -1 -1 -1 -1 -0 0 0 0 -0 -0 -1 -1 -1 -1 -1
1 3 3 -0 -2 -2 0 -0 -1 -2 -3 -0 3 7 10 12 12 10 8 4 2 2 2 1 0 0 0 2 5 7 8 6 4 3 3 4 2 0 -1 2 4 5 4 2 1 0 0 1 1 1 2 1 0 -1 -1 -2 -2 -3 -3 -3 -2 -1 -1 -1 -1 -1 -2 -2 -2 -2 -2 -2 -2 -2 -1 -0 0 0 1 0 0 -0 -1 -1 -1 -2
0 1 1 -1 -3 -4 -2 0 1 0 -2 0 3 5 6 8 10 10 6 3 2 3 3 2 1 1 1 0 2 5 8 7 5 2 2 2 0 -1 1 4 5 4 3 1 1 0 0 1 1 2 2 1 0 -1 -1 -2 -2 -3 -3 -2 -2 -1 -1 -1 -1 -1 -2 -2 -2 -2 -3 -3 -2 -2 -1 -1 -0 0 1 1 0 0 -0 -1 -1 -2
1 1 1 -1 -4 -5 -4 -1 0 1 1 3 4 4 0 0 2 4 3 3 4 6 5 2 1 1 2 1 1 4 8 8 6 3 1 -1 -2 0 6 8 7 4 3 2 1 1 1 1 2 2 3 1 0 -0 -1 -1 -2 -2 -2 -2 -1 -0 -0 -0 -1 -1 -2 -2 -3 -3 -3 -3 -3 -2 -2 -1 -0 0 1 1 1 0 -0 -1 -1 -2
-0 1 1 -2 -5 -5 -3 0 1 1 1 2 3 2 -2 -4 -3 -1 1 5 8 10 8 5 2 1 1 2 4 6 8 8 6 4 1 -1 0 3 9 9 7 4 3 2 2 1 1 2 3 3 3 2 1 0 -0 -1 -2 -2 -2 -2 -1 -0 0 -0 -1 -1 -2 -2 -3 -3 -4 -4 -3 -2 -2 -1 -1 -0 0 0 0 0 -0 -1 -1 -2
0 0 -1 -5 -7 -6 -2 2 3 2 1 2 2 3 1 -0 -0 1 5 9 10 10 9 8 6 4 3 6 8 10 11 9 6 3 2 2 4 7 10 8 5 3 3 4 3 2 2 3 4 3 2 2 1 0 -0 -1 -2 -2 -2 -2 -1 -0 -0 -1 -1 -2 -2 -3 -3 -3 -4 -3 -3 -2 -2 -1 -1 -0 0 0 0 0 -0 -0 -1 -1
2 3 2 -5 -7 -6 -2 1 3 2 1 3 4 4 2 1 -0 0 4 8 9 9 8 9 8 7 8 10 11 12 12 9 7 5 5 5 6 7 10 8 5 3 4 5 4 2 2 4 4 3 1 1 0 -0 -0 -1 -2 -3 -3 -2 -2 -1 -1 -1 -2 -2 -2 -3 -3 -4 -4 -3 -2 -2 -1 -1 -1 -0 -0 0 0 0 0 -0 -0 -0
2 4 7 4 -0 -3 -4 -0 2 3 2 4 5 5 5 -0 -4 -3 4 9 10 9 8 9 10 11 12 10 11 12 13 10 8 9 11 8 5 3 6 7 6 4 4 6 5 4 2 3 3 2 2 1 0 0 0 -1 -1 -2 -2 -2 -1 -1 -1 -1 -2 -2 -2 -3 -3 -3 -3 -3 -2 -2 -1 -1 -1 -0 -0 -0 -0 0 0 0 -0 -0
0 3 4 2 -1 -4 -5 -3 -0 2 5 5 5 4 2 -1 -2 1 8 11 12 10 8 9 13 16 17 12 9 9 13 16 17 16 15 9 4 1 4 8 8 6 5 6 5 5 4 4 3 3 2 2 2 2 2 1 0 -0 -0 -0 -0 -1 -1 -1 -2 -2 -2 -2 -3 -3 -3 -2 -2 -1 -1 -1 -1 -1 -0 -0 -0 -0 0 0 0 0
4 4 4 -0 -4 -5 -4 -4 -2 1 6 7 6 3 0 0 2 6 9 10 10 9 7 8 13 18 21 15 8 5 11 20 22 20 14 7 2 0 4 8 9 8 6 6 5 5 5 5 4 3 3 3 4 4 4 3 2 1 1 1 1 -0 -1 -1 -2 -2 -2 -2 -2 -2 -2 -2 -1 -1 -1 -1 -1 -1 -1 -1 -0 -0 -0 0 0 -0
6 5 5 1 -2 -4 -4 -3 -0 4 8 9 8 6 4 4 4 6 6 6 7 8 9 10 13 17 19 14 8 5 11 20 21 17 11 6 2 1 4 9 9 8 6 6 5 5 5 4 3 3 3 4 5 5 4 3 3 2 2 2 1 0 -0 -1 -1 -2 -2 -2 -2 -2 -2 -2 -1 -1 -1 -1 -1 -1 -1 -1 -1 -1 -0 -0 -0 -0
6 2 0 1 1 -0 -4 -5 -1 5 10 10 10 10 10 8 7 6 5 5 6 7 8 11 14 16 17 13 9 8 14 19 18 14 8 5 3 2 5 9 9 8 5 4 4 4 5 3 2 2 2 3 4 4 4 3 2 2 2 1 1 0 -0 -1 -1 -2 -2 -2 -2 -2 -2 -2 -1 -1 -1 -1 -1 -1 -1 -1 -1 -1 -1 -1 -1 -1
11 3 -1 3 6 5 -2 -5 -2 5 12 14 14 14 12 10 9 8 7 7 7 6 6 10 13 15 16 14 12 11 16 20 18 12 6 6 4 3 5 9 10 8 5 2 2 3 4 3 1 1 1 2 2 3 3 2 2 1 1 0 -0 -1 -1 -1 -1 -1 -1 -1 -1 -1 -1 -1 -1 -1 -1 -1 -1 -1 -1 -1 -1 -1 -1 -1 -1 -1
16 8 1 4 6 6 -0 -3 0 7 15 18 18 16 12 12 12 12 10 10 9 7 6 9 11 14 16 16 14 12 14 17 15 11 8 7 4 2 3 9 10 8 4 1 1 2 3 2 1 -0 -0 1 1 1 2 1 1 1 0 -1 -1 -2 -2 -2 -2 -1 -1 -1 -1 -1 -1 -1 -1 -1 -1 -2 -2 -2 -1 -1 -1 -1 -0 -0 -0 -1
10 7 1 2 4 5 2 2 6 12 19 22 20 16 11 12 14 14 13 11 9 7 5 7 9 11 14 14 14 14 13 13 11 10 9 7 3 -1 2 8 9 7 3 1 1 2 2 2 1 0 -0 0 1 1 1 1 1 1 -0 -1 -2 -2 -2 -2 -2 -1 -1 -1 -1 -1 -1 -1 -1 -1 -2 -2 -2 -2 -2 -2 -1 -1 -0 0 0 -0
-2 -1 -0 2 4 5 5 8 12 17 22 22 19 14 10 11 13 13 13 11 9 6 5 6 8 10 11 12 13 13 11 9 8 8 7 4 0 -1 2 7 8 6 0 0 2 4 4 1 0 -0 0 0 1 1 1 1 1 1 -0 -1 -2 -2 -2 -2 -1 -1 -1 -1 -1 -1 -2 -2 -2 -2 -2 -2 -2 -2 -2 -2 -1 -0 0 1 1 0
-4 -3 -0 2 4 5 6 10 16 21 24 22 18 13 10 10 11 12 11 10 8 6 6 8 10 11 11 12 13 11 8 7 7 8 7 4 1 -0 2 7 8 6 -0 -1 1 4 5 2 0 -0 0 0 0 1 1 1 1 1 -0 -1 -1 -1 -1 -1 -1 -0 -0 -1 -1 -1 -2 -2 -2 -2 -3 -3 -2 -2 -2 -2 -1 0 1 1 1 1
-1 -0 1 4 5 5 5 11 17 22 23 20 16 13 12 12 12 12 10 7 6 5 7 9 12 13 14 15 14 11 8 10 11 12 11 9 6 3 1 5 7 6 1 -1 1 4 6 3 1 -1 -0 -1 -0 0 1 1 1 0 -0 -1 -1 -1 -1 -0 0 0 -0 -0 -1 -1 -1 -2 -2 -2 -2 -2 -2 -2 -1 -1 0 1 2 2 2 2
1 2 3 4 4 5 5 11 16 20 20 17 14 13 14 15 15 13 9 4 3 4 7 10 13 14 15 14 13 12 12 17 18 17 14 14 10 5 -0 3 5 5 2 0 1 4 6 4 1 -1 -1 -1 -1 -1 -0 0 0 -0 -0 -1 -1 -0 -0 0 1 1 0 0 -0 -0 -1 -1 -1 -1 -1 -1 -1 -1 -0 0 1 2 3 3 3 2
2 3 3 3 3 4 6 11 15 17 16 14 13 13 14 17 17 14 8 3 3 5 7 10 13 15 14 12 12 14 19 23 22 19 14 13 8 2 -2 1 3 4 3 2 2 2 4 3 1 -1 -2 -2 -2 -1 -1 -1 -1 -0 0 0 0 0 1 1 1 1 1 1 0 0 -0 -0 -1 -1 -1 -0 -0 -0 -0 0 1 1 2 3 3 3
2 3 3 1 1 3 7 11 13 13 13 12 11 12 12 15 16 14 8 5 6 8 9 11 13 15 14 13 15 19 25 26 22 16 12 10 4 -2 -3 2 3 3 4 4 2 1 1 1 1 1 -1 -2 -3 -3 -3 -3 -2 -1 0 0 1 1 1 2 2 2 1 1 1 0 0 -0 -0 -0 -0 -0 -0 -0 -0 -0 0 1 1 2 2 2
2 2 1 0 1 3 7 10 11 11 10 10 10 10 10 12 13 12 9 9 11 13 13 13 14 16 18 20 24 26 28 24 17 12 9 6 0 -4 -2 1 2 2 4 6 4 1 -2 -3 -2 -0 0 -2 -3 -4 -5 -4 -3 -2 -1 -1 -0 -0 0 1 2 2 2 2 1 1 0 0 -0 -0 -0 -0 -1 -1 -1 -1 -1 -0 0 1 1 1
1 1 1 0 1 4 8 9 10 9 9 9 9 9 8 9 10 11 10 12 14 16 16 17 19 22 27 31 33 32 28 17 8 3 5 4 -0 -3 0 3 1 0 2 6 7 5 -0 -4 -5 -4 -1 -2 -3 -5 -6 -4 -3 -1 -1 -1 -1 -1 -1 0 1 2 2 2 1 1 1 1 0 0 -0 -1 -1 -2 -2 -2 -2 -1 -0 0 1 1
-1 0 1 1 3 5 7 8 8 8 8 8 8 8 8 10 11 12 14 16 17 18 19 21 25 29 34 37 37 33 24 10 -0 -4 1 2 -0 -2 1 4 3 0 -0 3 6 8 6 1 -4 -5 -4 -3 -4 -5 -6 -4 -2 -0 1 0 -0 -1 -1 0 1 2 2 1 1 1 1 1 0 0 -1 -1 -2 -2 -2 -3 -3 -2 -1 0 1 2
-1 1 3 3 4 6 7 7 7 6 7 7 8 9 10 12 15 17 19 18 17 18 20 24 28 33 35 36 33 26 15 2 -5 -6 -0 2 1 -1 -0 3 3 2 1 1 3 5 7 5 1 -2 -4 -5 -5 -5 -4 -3 -1 -0 1 1 1 -0 -2 -0 1 1 1 1 1 0 -0 -0 -0 -0 -1 -2 -2 -2 -3 -3 -4 -3 -2 0 2 3
-0 2 4 5 5 6 6 6 6 6 7 8 9 10 12 13 15 17 17 15 13 14 18 23 28 31 32 29 23 15 4 -4 -6 -5 0 2 1 -0 -0 2 3 3 3 2 2 2 3 3 2 1 -1 -5 -7 -6 -4 -2 -1 -1 -1 0 1 0 -1 -1 -0 0 0 -0 -0 -0 -1 -1 -1 -1 -2 -2 -2 -3 -3 -4 -4 -4 -3 -1 1 3
1 4 5 5 6 6 6 6 6 7 8 9 10 10 11 11 12 11 9 8 9 12 16 20 23 23 22 17 10 3 -3 -6 -6 -2 1 2 1 0 0 1 2 3 5 3 3 3 3 1 1 1 1 -2 -6 -8 -6 -3 -1 -1 -2 -2 -1 -1 -2 -1 -0 0 -0 -1 -1 -1 -1 -1 -1 -1 -1 -2 -2 -2 -3 -4 -4 -4 -3 -2 -0 1
3 5 6 6 6 6 6 6 7 8 9 10 10 10 9 8 7 6 5 6 9 12 14 14 13 11 8 5 2 -0 -3 -4 -3 -1 1 0 1 1 2 1 2 3 5 4 3 3 3 1 0 -0 1 1 -1 -5 -8 -6 -3 -1 -1 -2 -3 -3 -4 -2 -1 0 1 0 -0 -1 -1 -1 -1 -1 -1 -2 -2 -2 -3 -4 -4 -3 -2 -2 -2 -1
5 7 7 6 6 6 6 6 8 10 11 11 10 8 8 6 6 5 6 7 9 10 10 8 6 4 2 1 1 2 2 2 2 1 0 -1 0 2 3 2 2 3 5 5 4 2 3 2 0 -1 -1 1 1 0 -3 -5 -4 -3 -2 -2 -2 -3 -4 -4 -2 -0 1 1 0 -0 -0 -0 -0 -0 -1 -2 -3 -4 -4 -5 -4 -3 -2 -2 -1 -1
8 9 8 7 6 6 6 7 9 10 11 10 9 8 6 6 5 6 7 7 8 8 8 6 5 5 4 4 4 5 6 6 5 2 -0 -1 0 2 4 3 2 2 3 5 4 4 3 3 2 1 -0 -1 -1 -1 -0 -0 -1 -1 -3 -4 -4 -4 -4 -3 -2 -1 0 0 0 -1 -1 -1 -0 -0 -1 -2 -4 -4 -5 -5 -5 -4 -3 -2 -2 -2
10 10 9 7 7 7 8 9 10 11 11 10 9 8 6 5 5 6 7 7 8 9 10 9 9 9 8 6 6 6 6 6 4 1 -1 -1 1 2 4 4 2 1 1 2 3 4 3 3 3 4 4 2 -0 -3 -4 -2 0 1 0 -3 -6 -8 -7 -4 -2 -1 -0 0 0 -0 -1 -2 -1 -0 -1 -2 -4 -4 -4 -4 -4 -4 -2 -1 -2 -3
11 10 8 7 6 7 8 10 11 12 11 11 10 8 6 5 5 5 6 8 11 13 14 14 12 11 8 6 5 4 4 3 1 -0 -1 0 1 2 3 3 3 2 1 1 1 2 2 2 2 2 3 4 3 1 -2 -2 -1 0 1 0 -3 -6 -8 -6 -4 -2 -2 -1 -0 0 0 -0 -1 -1 -2 -3 -4 -4 -3 -2 -2 -2 -2 -1 -0 -1
10 9 8 6 6 7 8 10 11 12 12 12 10 8 5 5 5 6 7 10 14 16 18 17 14 11 6 4 3 3 3 1 -0 -1 0 1 2 2 2 2 3 3 2 1 -0 -0 0 2 2 2 2 3 3 2 -1 -2 -1 -0 1 1 -1 -3 -6 -6 -4 -2 -1 -2 -2 -1 0 1 0 -1 -2 -4 -6 -6 -6 -2 -0 -0 -1 -2 -1 -0
9 8 6 6 6 7 9 10 11 11 11 11 10 8 5 5 5 6 7 10 13 15 16 15 12 9 4 2 1 1 1 0 0 1 2 2 2 2 2 2 2 2 2 1 -0 -2 -1 1 3 3 3 3 4 3 -0 -3 -4 -3 -1 1 1 -1 -5 -8 -7 -4 -1 -1 -2 -2 -1 0 1 0 -1 -3 -5 -6 -6 -3 -1 0 1 -0 -1 -1
7 6 5 6 7 8 9 10 10 10 11 12 11 8 5 5 5 6 8 10 12 13 12 10 6 4 2 0 -1 -2 -2 -0 1 3 3 3 2 2 2 2 2 2 2 1 -0 -2 -3 -1 2 4 4 4 4 3 2 -1 -3 -4 -4 -2 0 1 0 -5 -7 -7 -5 -3 -2 -1 0 1 1 0 -1 -3 -4 -4 -4 -2 -1 -0 1 1 0 -1
6 6 6 7 8 9 10 10 10 12 15 16 14 10 6 6 6 8 10 13 15 16 13 7 3 1 0 -1 -2 -3 -2 -1 1 3 4 3 3 4 4 3 1 0 1 2 2 1 -1 -1 -0 1 3 4 4 3 1 -0 -2 -3 -5 -5 -3 -1 1 0 -1 -3 -4 -4 -4 -3 -1 1 2 1 -1 -4 -5 -5 -3 -1 -0 -0 -0 0 0 -0
6 6 7 8 10 11 11 11 13 16 20 20 16 11 6 6 7 9 13 18 20 20 16 10 6 4 2 -2 -3 -3 -1 -0 1 2 3 3 4 4 5 4 2 0 -0 -0 1 2 3 3 1 0 0 1 2 3 2 1 -0 -2 -4 -5 -4 -2 -2 -2 -1 -0 1 -1 -2 -3 -2 -0 2 2 1 -2 -4 -5 -4 -1 0 1 0 -0 -1 -1
7 7 8 10 11 12 12 13 17 20 23 20 14 9 5 6 8 11 16 21 23 22 18 14 12 10 5 -1 -4 -3 -0 1 1 1 2 3 3 4 4 3 2 1 1 0 -0 0 2 4 4 3 2 0 -1 -1 -1 1 2 0 -2 -3 -2 -2 -2 -3 -2 -1 0 0 -0 -1 -2 -1 -0 1 1 0 -2 -3 -4 -2 -0 1 1 -0 -1 -2
6 7 8 10 11 12 13 15 19 22 21 15 9 5 4 7 10 14 18 21 22 21 18 16 14 10 4 -2 -3 -1 1 1 1 1 2 3 3 3 2 1 1 1 2 1 1 0 -0 1 1 3 4 3 1 -1 -3 -2 0 1 1 -0 -0 -0 -1 -2 -2 -2 -1 -1 -1 -1 -1 0 1 1 0 -1 -2 -3 -4 -3 -2 -0 0 -0 -1 -2
5 6 7 9 11 12 13 16 19 20 16 9 4 3 5 10 14 17 19 20 19 19 17 14 10 4 -1 -3 -2 0 2 2 1 1 2 2 1 1 1 0 0 -0 0 0 0 -0 -1 -1 -0 1 3 4 4 2 -0 -1 -0 1 1 1 1 1 1 -1 -2 -3 -3 -3 -3 -3 -1 1 3 4 4 2 -1 -3 -5 -5 -4 -3 -1 -1 -1 -2
5 6 7 8 9 10 12 16 19 18 13 6 3 4 8 12 15 18 18 17 15 13 11 6 2 -1 -3 -1 -0 1 2 2 2 2 1 1 0 -0 -1 -1 -1 -1 -1 -2 -2 -2 -3 -4 -2 -0 3 6 6 5 3 1 0 0 1 0 1 1 1 -0 -3 -4 -5 -5 -6 -5 -4 -2 0 2 4 4 2 -0 -4 -5 -6 -5 -3 -2 -1 -1
6 6 7 7 8 10 14 18 19 17 10 5 5 7 11 13 15 15 13 10 8 5 2 -1 -2 -2 -1 1 1 2 3 2 2 1 0 -0 -1 -1 -1 -2 -1 -1 -2 -3 -3 -4 -4 -5 -6 -5 -1 4 7 8 6 3 0 -1 -2 -2 -2 -0 1 -1 -3 -5 -6 -6 -6 -6 -5 -4 -3 -2 1 3 3 1 -1 -4 -5 -6 -4 -2 -1 -1
7 6 6 6 7 10 15 17 16 12 7 5 6 9 12 13 12 10 7 4 2 -0 -2 -3 -1 1 2 2 2 3 3 3 2 1 -1 -1 -1 -0 -1 -1 -1 -1 -0 -2 -3 -4 -4 -4 -6 -8 -8 -3 2 6 8 4 1 -2 -4 -5 -5 -3 -2 -3 -5 -7 -8 -8 -7 -7 -6 -6 -5 -4 -2 1 2 2 0 -2 -4 -4 -4 -2 0 1
Height
5576 5575 5574 5572 5571 5570 5569 5569 5567 5565 5563 5561 5560 5558 5557 5556 5556 5556 5555 5555 5554 5553 5552 5551 5551 5551 5550 5550 5550 5549 5549 5548 5547 5547 5547 5546 5546 5545 5545 5544 5544 5543 5542 5541 5541 5540 5540 5538 5536 5535 5534 5533 5532 5530 5529 5527 5525 5523 5521 5520 5518 5516 5515 5512 5510 5508 5506 5504 5501 5499 5496 5493 5491 5488 5485 5483 5480 5478 5475 5473 5470 5468 5465 5462 5460 5457
5571 5571 5570 5569 5567 5565 5564 5564 5563 5561 5559 5557 5556 5555 5553 5552 5551 5551 5551 5550 5550 5549 5548 5547 5547 5547 5547 5546 5546 5545 5545 5544 5544 5544 5544 5543 5542 5542 5541 5541 5540 5539 5538 5537 5537 5536 5535 5534 5533 5531 5530 5529 5528 5526 5525 5523 5521 5519 5517 5515 5514 5512 5510 5508 5506 5504 5501 5499 5496 5494 5491 5489 5486 5483 5480 5478 5475 5473 5470 5468 5465 5463 5460 5457 5455 5452
5566 5565 5565 5565 5563 5561 5559 5559 5558 5557 5555 5554 5552 5550 5549 5547 5547 5547 5547 5546 5545 5544 5543 5543 5543 5543 5543 5543 5542 5541 5541 5541 5541 5541 5540 5540 5539 5538 5538 5537 5536 5535 5535 5534 5534 5533 5531 5530 5529 5528 5526 5525 5524 5522 5520 5518 5516 5515 5513 5511 5509 5508 5506 5504 5501 5499 5497 5494 5492 5489 5486 5484 5481 5478 5476 5473 5471 5468 5466 5463 5460 5458 5455 5452 5450 5446
5561 5560 5560 5560 5559 5557 5555 5554 5553 5552 5551 5550 5548 5547 5545 5544 5543 5542 5542 5542 5541 5540 5539 5539 5539 5540 5540 5539 5539 5538 5537 5537 5537 5537 5537 5536 5535 5535 5535 5534 5533 5532 5531 5531 5530 5529 5527 5526 5525 5524 5522 5521 5520 5518 5516 5514 5512 5510 5509 5507 5505 5503 5501 5499 5497 5495 5492 5490 5487 5484 5481 5479 5476 5474 5471 5468 5466 5464 5461 5458 5456 5453 5450 5447 5444 5441
5557 5555 5555 5554 5553 5552 5552 5550 5549 5548 5547 5546 5545 5543 5542 5540 5539 5538 5538 5538 5537 5536 5535 5535 5535 5535 5536 5535 5535 5534 5534 5534 5534 5533 5533 5532 5532 5532 5531 5530 5530 5529 5528 5527 5526 5525 5523 5522 5521 5520 5518 5517 5515 5514 5512 5510 5508 5506 5505 5503 5501 5499 5497 5495 5493 5490 5487 5485 5482 5480 5477 5474 5471 5469 5466 5464 5461 5459 5456 5454 5451 5448 5445 5442 5439 5436
5553 5551 5550 5549 5548 5548 5548 5546 5545 5543 5542 5541 5540 5540 5538 5537 5536 5535 5534 5534 5534 5533 5532 5531 5531 5531 5532 5531 5531 5530 5530 5530 5530 5530 5529 5528 5528 5528 5527 5526 5526 5525 5524 5524 5522 5521 5520 5518 5517 5515 5514 5513 5511 5509 5507 5505 5504 5502 5500 5498 5496 5495 5493 5490 5488 5485 5483 5480 5478 5475 5472 5469 5467 5464 5462 5459 5457 5454 5451 5449 5446 5443 5440 5437 5434 5431
5548 5547 5545 5544 5544 5544 5544 5543 5541 5539 5537 5535 5535 5535 5535 5534 5533 5532 5531 5530 5529 5529 5529 5527 5527 5528 5528 5527 5527 5526 5526 5526 5526 5526 5525 5525 5525 5524 5524 5523 5522 5522 5521 5520 5519 5517 5516 5514 5513 5511 5510 5509 5507 5505 5503 5501 5500 5498 5496 5494 5492 5490 5488 5486 5484 5481 5478 5476 5473 5470 5467 5465 5462 5460 5457 5455 5452 5450 5447 5444 5441 5438 5435 5432 5429 5426
5543 5542 5541 5540 5539 5539 5539 5539 5537 5535 5533 5531 5530 5530 5530 5530 5529 5528 5527 5525 5525 5525 5525 5524 5523 5524 5524 5523 5523 5523 5522 5522 5522 5522 5522 5522 5522 5521 5520 5520 5519 5519 5518 5516 5515 5513 5512 5510 5509 5508 5506 5505 5503 5501 5499 5497 5495 5493 5491 5490 5488 5486 5484 5481 5479 5476 5474 5471 5469 5466 5463 5460 5458 5455 5453 5450 5448 5445 5442 5440 5436 5433 5430 5427 5424 5421
5538 5537 5536 5536 5535 5534 5533 5534 5533 5532 5530 5529 5527 5525 5525 5525 5525 5524 5523 5521 5520 5520 5521 5520 5519 5519 5520 5520 5520 5519 5519 5518 5518 5518 5518 5519 5519 5519 5517 5516 5516 5515 5514 5512 5511 5510 5508 5506 5505 5504 5502 5500 5498 5496 5495 5493 5491 5489 5487 5485 5483 5481 5479 5477 5474 5472 5469 5466 5464 5461 5458 5456 5453 5451 5449 5446 5443 5441 5438 5435 5431 5428 5425 5422 5419 5416
5533 5532 5531 5531 5530 5530 5529 5528 5529 5528 5527 5528 5525 5522 5522 5522 5522 5521 5520 5518 5517 5516 5517 5516 5515 5515 5516 5516 5516 5516 5515 5515 5515 5515 5515 5516 5515 5514 5514 5513 5512 5511 5510 5509 5507 5506 5504 5503 5501 5500 5498 5496 5494 5492 5490 5488 5486 5485 5483 5481 5479 5477 5475 5472 5470 5467 5465 5462 5459 5456 5454 5451 5449 5446 5444 5441 5439 5436 5433 5430 5427 5424 5420 5417 5414 5411
5527 5527 5527 5526 5525 5525 5525 5525 5524 5524 5523 5524 5522 5519 5518 5518 5518 5517 5516 5515 5514 5513 5513 5512 5512 5511 5512 5512 5513 5513 5512 5512 5511 5512 5513 5512 5511 5510 5510 5509 5508 5507 5506 5505 5504 5502 5500 5499 5497 5496 5494 5492 5490 5488 5486 5484 5482 5480 5479 5477 5475 5472 5470 5468 5465 5462 5460 5457 5455 5452 5449 5447 5445 5442 5440 5437 5434 5431 5428 5425 5422 5419 5415 5413 5410 5406
5522 5522 5522 5521 5521 5520 5520 5520 5520 5519 5519 5519 5518 5515 5513 5514 5513 5512 5511 5511 5510 5510 5509 5509 5508 5508 5510 5510 5510 5510 5510 5509 5508 5508 5508 5508 5507 5507 5506 5505 5504 5503 5503 5501 5500 5498 5496 5495 5493 5491 5490 5488 5486 5484 5482 5480 5478 5476 5474 5472 5470 5468 5465 5463 5460 5458 5455 5452 5450 5447 5445 5442 5440 5437 5435 5432 5430 5426 5423 5420 5417 5414 5411 5408 5405 5402
5517 5517 5517 5516 5516 5515 5515 5515 5515 5514 5514 5513 5512 5510 5508 5508 5508 5508 5508 5509 5508 5507 5506 5505 5505 5505 5507 5507 5507 5506 5506 5505 5505 5505 5504 5503 5503 5503 5503 5501 5500 5500 5499 5497 5495 5494 5492 5491 5489 5487 5486 5484 5482 5480 5478 5476 5474 5472 5470 5468 5465 5463 5461 5459 5456 5453 5450 5448 5445 5443 5440 5438 5435 5433 5430 5427 5425 5422 5418 5415 5412 5409 5406 5403 5400 5397
5512 5512 5512 5511 5510 5510 5510 5510 5510 5509 5508 5507 5505 5505 5504 5505 5505 5505 5506 5506 5505 5504 5503 5503 5502 5502 5504 5504 5503 5503 5502 5502 5501 5501 5500 5500 5500 5500 5500 5498 5497 5496 5495 5494 5492 5490 5489 5487 5485 5483 5482 5480 5478 5475 5474 5471 5470 5467 5465 5463 5461 5459 5456 5454 5451 5449 5446 5443 5441 5438 5436 5433 5430 5428 5425 5423 5420 5417 5414 5410 5408 5405 5402 5399 5396 5393
5508 5508 5507 5505 5505 5505 5506 5506 5505 5504 5503 5502 5502 5501 5502 5502 5502 5502 5501 5501 5500 5501 5501 5501 5500 5500 5500 5500 5499 5499 5499 5498 5497 5497 5496 5496 5497 5497 5496 5495 5493 5492 5491 5490 5488 5486 5484 5483 5481 5479 5477 5475 5473 5471 5469 5467 5465 5463 5461 5458 5456 5454 5452 5449 5447 5444 5441 5439 5436 5434 5431 5429 5426 5423 5421 5418 5415 5412 5409 5406 5403 5400 5397 5394 5391 5389
5503 5505 5505 5502 5501 5501 5501 5501 5500 5499 5498 5499 5498 5498 5498 5497 5496 5497 5498 5498 5498 5498 5499 5499 5498 5498 5497 5497 5497 5496 5495 5494 5494 5493 5493 5493 5494 5493 5493 5491 5489 5488 5487 5486 5484 5482 5480 5478 5477 5475 5473 5471 5469 5467 5465 5463 5461 5459 5456 5454 5452 5450 5447 5445 5442 5440 5437 5434 5432 5429 5427 5424 5421 5419 5416 5413 5410 5407 5404 5401 5399 5395 5393 5390 5387 5385
5497 5499 5499 5498 5498 5497 5497 5497 5496 5496 5495 5495 5494 5493 5493 5492 5493 5494 5495 5495 5495 5495 5495 5495 5495 5495 5494 5494 5494 5494 5493 5491 5490 5490 5491 5491 5490 5489 5489 5487 5486 5485 5484 5482 5480 5478 5476 5474 5473 5471 5469 5468 5465 5464 5461 5460 5457 5455 5452 5450 5447 5445 5443 5440 5438 5435 5433 5430 5427 5425 5422 5420 5417 5414 5411 5408 5405 5403 5400 5397 5394 5391 5388 5385 5383 5381
5492 5494 5495 5494 5493 5492 5492 5492 5492 5491 5491 5491 5490 5489 5489 5490 5490 5491 5490 5490 5490 5491 5491 5490 5491 5491 5490 5490 5490 5490 5490 5490 5490 5488 5488 5487 5486 5485 5485 5484 5482 5481 5480 5478 5476 5475 5473 5471 5469 5468 5466 5464 5462 5460 5458 5456 5453 5451 5448 5446 5443 5441 5438 5436 5433 5431 5428 5425 5423 5420 5418 5415 5412 5410 5407 5404 5401 5398 5395 5392 5389 5386 5384 5381 5379 5377
5488 5490 5490 5490 5488 5487 5488 5487 5487 5487 5487 5486 5486 5486 5486 5486 5487 5487 5486 5485 5486 5487 5487 5487 5487 5487 5488 5486 5485 5486 5487 5488 5487 5485 5484 5482 5481 5481 5481 5480 5479 5477 5476 5474 5472 5470 5469 5467 5466 5464 5462 5460 5458 5456 5454 5452 5449 5447 5444 5442 5439 5436 5434 5431 5429 5426 5424 5421 5418 5416 5413 5410 5408 5405 5402 5399 5396 5393 5390 5388 5385 5382 5380 5377 5375 5373
5483 5484 5485 5484 5484 5484 5484 5483 5483 5483 5483 5483 5484 5485 5484 5483 5483 5483 5482 5482 5482 5483 5483 5483 5483 5484 5485 5484 5483 5483 5484 5484 5483 5481 5480 5478 5478 5477 5477 5477 5475 5473 5471 5470 5469 5467 5465 5463 5462 5460 5459 5457 5455 5453 5450 5448 5445 5443 5440 5438 5435 5433 5430 5427 5425 5422 5420 5417 5414 5411 5409 5406 5403 5400 5398 5395 5392 5389 5386 5383 5380 5378 5375 5373 5371 5369
5479 5479 5479 5480 5481 5481 5479 5478 5478 5479 5480 5482 5483 5483 5481 5480 5480 5479 5479 5480 5480 5480 5480 5480 5480 5480 5481 5481 5480 5480 5481 5480 5478 5476 5475 5475 5474 5474 5474 5473 5471 5470 5468 5466 5465 5463 5461 5460 5458 5456 5455 5453 5451 5449 5446 5444 5441 5439 5436 5434 5431 5428 5426 5423 5420 5418 5415 5412 5410 5407 5404 5401 5399 5396 5393 5390 5387 5385 5382 5379 5376 5374 5371 5369 5367 5365
5475 5474 5473 5476 5477 5476 5475 5474 5475 5476 5478 5480 5480 5479 5476 5476 5476 5476 5477 5477 5478 5477 5477 5477 5477 5477 5479 5478 5477 5477 5478 5477 5475 5473 5471 5471 5470 5470 5471 5470 5468 5465 5464 5462 5461 5459 5458 5456 5454 5452 5450 5449 5447 5445 5442 5440 5437 5435 5432 5429 5427 5424 5422 5419 5416 5414 5411 5408 5405 5403 5400 5397 5394 5391 5389 5386 5383 5380 5378 5375 5372 5370 5368 5365 5363 5361
5470 5469 5469 5470 5471 5471 5471 5471 5472 5473 5475 5475 5475 5473 5473 5473 5473 5473 5473 5474 5474 5474 5473 5473 5474 5475 5475 5475 5475 5474 5473 5473 5471 5469 5468 5467 5467 5467 5467 5465 5464 5461 5460 5459 5457 5455 5454 5452 5450 5449 5447 5445 5443 5441 5438 5436 5433 5430 5428 5425 5422 5420 5417 5415 5412 5409 5407 5404 5401 5398 5395 5393 5390 5387 5385 5382 5379 5376 5374 5371 5369 5366 5364 5362 5359 5357
5464 5464 5465 5465 5466 5466 5467 5469 5470 5470 5470 5470 5470 5469 5469 5469 5470 5470 5470 5470 5470 5470 5469 5469 5470 5471 5471 5472 5472 5471 5470 5469 5467 5466 5465 5464 5463 5463 5462 5461 5459 5457 5455 5455 5454 5452 5450 5448 5447 5445 5443 5441 5439 5437 5434 5432 5429 5426 5424 5421 5419 5416 5413 5410 5408 5405 5402 5400 5397 5394 5391 5388 5386 5383 5380 5377 5375 5372 5370 5367 5365 5363 5360 5358 5355 5353
5459 5460 5460 5461 5461 5462 5462 5464 5465 5466 5466 5466 5466 5465 5465 5465 5466 5467 5467 5467 5467 5466 5465 5466 5466 5467 5467 5468 5467 5467 5466 5465 5464 5463 5462 5460 5459 5458 5458 5457 5455 5453 5452 5451 5450 5448 5446 5445 5443 5441 5439 5437 5435 5433 5430 5428 5425 5423 5420 5417 5415 5412 5409 5406 5404 5401 5398 5395 5392 5390 5387 5384 5381 5379 5376 5373 5371 5368 5366 5364 5361 5359 5357 5355 5352 5350
5455 5455 5455 5456 5457 5457 5457 5459 5460 5461 5461 5462 5462 5461 5461 5461 5462 5463 5463 5462 5462 5462 5462 5463 5463 5463 5464 5464 5463 5463 5462 5462 5461 5460 5460 5458 5456 5455 5454 5453 5452 5450 5448 5447 5446 5445 5443 5441 5439 5437 5435 5433 5431 5429 5426 5424 5421 5419 5416 5413 5411 5408 5405 5403 5400 5397 5394 5391 5388 5385 5383 5380 5377 5375 5372 5370 5367 5365 5362 5360 5358 5356 5354 5351 5349 5346
5451 5451 5451 5452 5453 5454 5454 5455 5455 5456 5456 5457 5457 5456 5457 5458 5459 5459 5458 5457 5458 5459 5459 5459 5459 5460 5460 5460 5460 5460 5460 5459 5459 5458 5457 5455 5453 5451 5450 5449 5448 5446 5445 5443 5442 5441 5439 5437 5435 5433 5431 5429 5426 5425 5422 5420 5417 5415 5412 5410 5407 5404 5401 5399 5396 5393 5390 5387 5384 5381 5379 5376 5373 5371 5368 5366 5364 5361 5359 5357 5355 5353 5350 5348 5345 5342
5447 5447 5447 5447 5449 5450 5450 5451 5451 5451 5451 5451 5451 5452 5454 5455 5456 5455 5453 5453 5455 5456 5455 5455 5456 5456 5457 5457 5457 5456 5457 5456 5456 5455 5454 5452 5449 5447 5446 5445 5444 5443 5441 5439 5438 5437 5436 5433 5431 5429 5426 5424 5422 5420 5418 5416 5414 5411 5408 5405 5403 5400 5398 5395 5392 5389 5386 5383 5380 5378 5375 5372 5370 5367 5365 5362 5360 5358 5355 5353 5351 5349 5347 5344 5342 5339
5443 5443 5443 5443 5444 5445 5446 5446 5446 5446 5446 5446 5447 5448 5449 5451 5451 5450 5450 5451 5453 5453 5452 5452 5453 5454 5454 5454 5453 5453 5454 5453 5452 5451 5450 5447 5445 5443 5443 5442 5440 5439 5438 5435 5434 5433 5431 5430 5427 5424 5422 5420 5418 5416 5414 5412 5410 5407 5405 5402 5399 5397 5394 5391 5388 5385 5382 5380 5377 5374 5371 5369 5366 5363 5361 5359 5356 5354 5352 5350 5347 5345 5343 5340 5338 5335
5439 5440 5440 5440 5440 5440 5441 5442 5442 5442 5442 5442 5443 5444 5445 5446 5447 5447 5447 5449 5450 5450 5449 5449 5450 5450 5451 5450 5450 5450 5450 5449 5448 5447 5445 5443 5440 5439 5439 5438 5437 5435 5434 5432 5430 5428 5426 5425 5423 5421 5418 5415 5414 5412 5410 5407 5405 5403 5400 5398 5395 5393 5390 5387 5385 5382 5379 5376 5373 5370 5367 5365 5362 5360 5357 5355 5352 5350 5348 5345 5343 5341 5339 5337 5334 5332
5435 5436 5436 5436 5436 5437 5437 5438 5438 5438 5438 5439 5440 5440 5441 5442 5444 5445 5446 5447 5447 5447 5446 5447 5447 5447 5447 5447 5447 5446 5445 5444 5443 5443 5441 5439 5436 5436 5435 5434 5433 5432 5431 5429 5426 5423 5421 5420 5418 5417 5414 5412 5409 5407 5405 5403 5401 5399 5396 5394 5391 5389 5386 5384 5381 5378 5375 5372 5369 5366 5364 5361 5358 5356 5353 5351 5348 5346 5343 5341 5339 5337 5335 5333 5330 5328
5431 5432 5432 5432 5432 5433 5433 5434 5434 5434 5434 5435 5436 5437 5438 5440 5442 5443 5444 5444 5444 5444 5444 5444 5443 5443 5443 5443 5443 5442 5441 5440 5439 5439 5438 5435 5433 5433 5432 5431 5429 5428 5427 5425 5423 5420 5417 5415 5413 5412 5410 5408 5405 5403 5401 5399 5397 5395 5392 5390 5387 5385 5382 5380 5377 5374 5371 5368 5365 5363 5360 5357 5355 5352 5349 5346 5344 5341 5339 5337 5335 5333 5331 5329 5327 5325
5428 5428 5429 5429 5429 5429 5430 5430 5430 5430 5431 5432 5433 5435 5436 5438 5440 5440 5440 5440 5440 5440 5440 5440 5440 5440 5440 5440 5439 5438 5436 5436 5436 5435 5434 5432 5430 5429 5429 5428 5426 5424 5423 5421 5420 5417 5414 5411 5409 5407 5405 5403 5401 5400 5397 5395 5393 5391 5389 5386 5384 5381 5378 5375 5373 5370 5367 5364 5361 5359 5356 5353 5350 5348 5345 5342 5340 5337 5335 5333 5330 5329 5327 5325 5324 5321
5425 5425 5425 5425 5425 5426 5426 5426 5427 5427 5428 5429 5431 5432 5434 5436 5437 5437 5437 5437 5437 5437 5437 5437 5437 5437 5436 5436 5435 5434 5433 5433 5432 5431 5430 5429 5427 5426 5425 5424 5423 5421 5419 5417 5415 5413 5410 5408 5405 5403 5400 5398 5397 5395 5394 5391 5389 5387 5385 5382 5380 5377 5374 5371 5369 5366 5363 5360 5357 5355 5352 5349 5346 5344 5341 5339 5336 5333 5331 5329 5327 5325 5323 5322 5320 5318
5421 5421 5421 5422 5422 5423 5423 5424 5424 5425 5426 5427 5428 5430 5431 5432 5433 5432 5432 5432 5433 5434 5434 5434 5434 5433 5432 5432 5431 5430 5430 5430 5429 5428 5427 5425 5424 5423 5422 5420 5419 5418 5415 5413 5411 5409 5406 5404 5402 5399 5396 5393 5391 5390 5389 5387 5385 5382 5380 5378 5375 5373 5370 5367 5365 5362 5359 5356 5353 5350 5348 5345 5342 5340 5337 5335 5332 5330 5327 5325 5323 5321 5320 5318 5316 5315
5418 5418 5418 5418 5419 5419 5420 5421 5422 5423 5424 5425 5426 5427 5428 5429 5429 5428 5429 5429 5430 5430 5430 5430 5430 5430 5430 5429 5428 5427 5427 5426 5425 5424 5423 5422 5421 5420 5418 5417 5416 5415 5412 5410 5407 5405 5403 5400 5398 5395 5393 5390 5387 5385 5384 5383 5381 5379 5376 5374 5371 5368 5366 5363 5361 5358 5355 5352 5349 5346 5344 5341 5339 5336 5333 5331 5328 5326 5324 5322 5320 5318 5316 5315 5313 5311
5414 5415 5415 5415 5416 5417 5418 5419 5420 5421 5421 5423 5424 5425 5425 5425 5425 5425 5426 5426 5427 5427 5427 5427 5427 5427 5426 5426 5425 5425 5424 5423 5422 5421 5420 5419 5418 5416 5415 5414 5412 5411 5409 5406 5404 5401 5399 5396 5394 5391 5389 5387 5385 5382 5380 5378 5376 5375 5372 5370 5367 5364 5361 5359 5357 5354 5351 5348 5345 5343 5340 5337 5335 5332 5330 5327 5325 5323 5320 5319 5317 5315 5313 5312 5310 5308
5411 5412 5412 5413 5413 5414 5415 5416 5417 5419 5420 5420 5421 5422 5422 5422 5422 5423 5423 5424 5424 5424 5425 5424 5424 5424 5423 5423 5422 5421 5420 5420 5418 5417 5416 5415 5414 5413 5412 5410 5409 5407 5405 5403 5400 5397 5395 5393 5390 5387 5385 5383 5381 5379 5377 5374 5372 5370 5367 5365 5363 5360 5358 5355 5353 5350 5347 5345 5342 5339 5336 5334 5331 5329 5326 5324 5321 5319 5317 5315 5314 5312 5310 5309 5307 5306
5409 5409 5410 5410 5411 5412 5413 5414 5415 5416 5418 5418 5419 5419 5420 5420 5420 5420 5420 5421 5421 5421 5422 5421 5421 5421 5420 5420 5420 5419 5417 5416 5415 5414 5413 5412 5411 5410 5409 5407 5405 5404 5402 5400 5397 5394 5391 5389 5387 5385 5382 5380 5377 5375 5373 5371 5369 5366 5363 5360 5358 5355 5354 5351 5349 5346 5344 5341 5338 5335 5333 5330 5328 5325 5323 5320 5319 5316 5315 5313 5311 5309 5308 5306 5305 5303
5406 5407 5407 5408 5409 5410 5411 5412 5413 5415 5415 5416 5417 5417 5417 5417 5417 5417 5418 5418 5419 5419 5419 5419 5418 5418 5418 5417 5416 5415 5414 5413 5411 5410 5410 5409 5408 5406 5405 5404 5401 5400 5398 5395 5393 5391 5388 5385 5383 5381 5379 5377 5374 5371 5369 5367 5365 5363 5360 5356 5353 5350 5349 5347 5345 5342 5340 5337 5335 5332 5330 5327 5325 5322 5320 5318 5316 5314 5312 5310 5308 5307 5305 5304 5302 5301
5403 5404 5405 5405 5406 5407 5409 5410 5412 5413 5413 5414 5414 5415 5414 5414 5415 5415 5415 5416 5417 5417 5417 5416 5416 5415 5415 5414 5413 5412 5410 5409 5408 5408 5407 5406 5405 5403 5402 5400 5398 5396 5394 5391 5389 5387 5385 5382 5380 5378 5376 5374 5371 5368 5365 5363 5361 5359 5356 5353 5350 5347 5344 5342 5340 5338 5335 5333 5331 5329 5327 5324 5322 5320 5317 5315 5313 5311 5310 5308 5306 5305 5303 5302 5300 5299
5400 5401 5402 5403 5404 5405 5406 5408 5410 5410 5410 5412 5412 5412 5412 5412 5412 5412 5413 5414 5414 5414 5414 5414 5413 5412 5411 5410 5409 5408 5407 5406 5405 5405 5404 5403 5401 5400 5398 5396 5395 5392 5390 5388 5385 5383 5381 5380 5377 5375 5373 5370 5368 5365 5362 5360 5357 5355 5353 5350 5347 5344 5340 5338 5336 5335 5333 5330 5328 5326 5324 5322 5320 5317 5315 5313 5310 5309 5307 5305 5304 5302 5301 5299 5298 5296
5397 5398 5399 5400 5401 5403 5405 5406 5407 5407 5408 5409 5410 5410 5410 5410 5410 5410 5410 5411 5411 5411 5411 5410 5410 5408 5407 5406 5405 5405 5404 5404 5403 5402 5401 5400 5398 5397 5395 5393 5391 5389 5386 5384 5382 5380 5378 5377 5375 5372 5370 5367 5365 5362 5359 5356 5353 5351 5349 5346 5344 5340 5337 5334 5332 5330 5329 5327 5325 5323 5321 5319 5317 5315 5312 5310 5308 5306 5305 5303 5302 5300 5299 5297 5296 5294
5395 5396 5396 5398 5399 5401 5402 5403 5403 5404 5406 5407 5407 5407 5407 5407 5407 5407 5408 5408 5409 5409 5409 5407 5406 5405 5404 5403 5402 5402 5402 5401 5401 5400 5398 5397 5395 5393 5391 5389 5387 5385 5383 5381 5379 5376 5375 5373 5371 5370 5367 5365 5361 5358 5355 5353 5350 5347 5345 5342 5340 5337 5335 5332 5330 5328 5326 5324 5322 5321 5319 5317 5315 5312 5310 5308 5306 5304 5302 5301 5299 5298 5296 5295 5294 5292
5392 5393 5394 5395 5397 5398 5399 5399 5400 5402 5403 5404 5405 5405 5405 5405 5405 5405 5406 5406 5407 5406 5406 5405 5403 5402 5401 5400 5399 5399 5399 5399 5398 5397 5395 5394 5392 5390 5388 5386 5384 5381 5380 5378 5376 5374 5372 5370 5368 5366 5364 5362 5359 5355 5353 5350 5346 5344 5341 5339 5336 5334 5332 5330 5328 5326 5324 5321 5320 5318 5316 5314 5312 5310 5308 5306 5304 5302 5300 5299 5297 5296 5295 5293 5291 5290
5390 5391 5392 5393 5395 5395 5396 5396 5397 5399 5400 5401 5402 5402 5402 5403 5403 5404 5404 5404 5404 5404 5403 5402 5401 5400 5399 5397 5397 5397 5396 5396 5395 5394 5392 5391 5389 5387 5385 5382 5380 5378 5376 5374 5373 5371 5370 5367 5365 5363 5360 5358 5355 5352 5350 5347 5344 5341 5338 5336 5334 5331 5329 5327 5325 5324 5321 5320 5317 5315 5314 5312 5310 5308 5305 5303 5301 5300 5298 5297 5295 5294 5292 5291 5289 5288
5387 5388 5390 5391 5392 5393 5393 5394 5395 5396 5397 5398 5399 5399 5400 5401 5401 5402 5402 5402 5401 5401 5400 5399 5399 5397 5396 5395 5395 5394 5393 5392 5391 5390 5389 5387 5385 5384 5381 5379 5377 5375 5373 5371 5369 5368 5366 5364 5362 5360 5357 5354 5351 5348 5346 5344 5341 5339 5336 5333 5331 5329 5326 5324 5322 5320 5319 5317 5315 5313 5311 5310 5307 5305 5303 5301 5299 5297 5296 5295 5293 5292 5290 5289 5287 5286
5385 5386 5387 5388 5389 5390 5391 5392 5393 5394 5395 5395 5396 5397 5398 5399 5400 5399 5399 5399 5399 5398 5398 5397 5396 5395 5393 5393 5392 5391 5390 5389 5388 5387 5385 5384 5382 5380 5378 5376 5374 5372 5370 5368 5366 5365 5363 5361 5359 5357 5355 5351 5348 5345 5343 5340 5338 5336 5333 5330 5328 5325 5323 5321 5319 5318 5316 5315 5313 5311 5309 5307 5305 5303 5301 5299 5297 5295 5293 5292 5291 5290 5288 5287 5285 5284
5383 5384 5385 5386 5387 5388 5389 5390 5391 5392 5392 5392 5393 5394 5395 5396 5397 5396 5396 5396 5396 5395 5395 5394 5393 5392 5391 5390 5390 5389 5387 5386 5385 5383 5382 5380 5378 5376 5374 5372 5370 5368 5366 5365 5363 5361 5360 5358 5356 5354 5352 5349 5346 5343 5340 5337 5335 5333 5330 5328 5325 5323 5320 5318 5316 5315 5313 5312 5310 5309 5307 5305 5303 5301 5299 5297 5295 5293 5291 5290 5288 5287 5286 5285 5283 5282
5381 5382 5382 5383 5384 5385 5386 5388 5389 5390 5390 5390 5390 5392 5393 5394 5394 5394 5394 5393 5393 5393 5392 5391 5390 5389 5389 5388 5387 5386 5385 5383 5381 5380 5378 5377 5375 5373 5370 5369 5367 5365 5363 5362 5360 5358 5356 5354 5352 5351 5349 5347 5344 5340 5337 5334 5331 5329 5326 5324 5322 5320 5317 5315 5314 5312 5311 5309 5308 5306 5304 5303 5301 5300 5297 5295 5293 5291 5289 5287 5286 5285 5284 5283 5281 5280
5379 5379 5380 5381 5382 5383 5385 5386 5387 5387 5387 5388 5388 5390 5391 5391 5391 5391 5391 5390 5390 5390 5389 5388 5388 5387 5386 5385 5384 5383 5382 5380 5379 5377 5375 5374 5372 5370 5367 5366 5364 5362 5360 5358 5356 5355 5352 5350 5348 5346 5345 5343 5341 5338 5334 5331 5328 5325 5322 5320 5318 5317 5315 5313 5311 5310 5308 5307 5305 5303 5302 5300 5298 5297 5295 5293 5291 5289 5287 5285 5283 5282 5281 5280 5279 5277